[[{"header":{"parameterUnit":"m.s-1","parameterCategory":1,"la1":30.2991,"la2":30.254,"lo1":-89.0895,"lo2":-89.0444,"dx":0.0017,"dy":0.0017,"nx":28,"ny":28,"refTime":"2022-12-09T15:00:00:Z","depth":0,"parameterNumber":2,"parameterNumberName":"U-component_of_WINDS"},"data":[0,0,0,0,0,0,0,0,0,0,0,0,0,0,0,0,0,0,0,0,0,0,0,0,0,0,0,0,0,0,0,0,0,0,0,0,0,0,0,0,0,0,0,0,0,0,0,0,0,0,0,0,0,0,0,0,0,0,0.8182,0.8182,0,0.8213,0.8214,0.8214,0.8208,0.8208,0.8207,0.8206,0.8243,0.8245,0.8246,0,0,0,0,0,0,0,0,0,0,0,0,0,0.8122,0.8123,0.8182,0.8182,0.8183,0.8213,0.8214,0.8214,0.8208,0.8208,0.8207,0.8206,0.8243,0.8245,0.8246,0,0,0,0,0,0,0,0,0,0,0,0,0,0.815,0.8123,0.8182,0.8183,0.8184,0.8213,0.8214,0.8214,0.8208,0.8208,0.8207,0.8206,0.8242,0.8244,0.8247,0.8278,0,0,0.8254,0.8255,0,0,0,0,0,0,0,0,0.8148,0.8152,0.8183,0.8183,0.8184,0.8206,0.8206,0.8236,0.8209,0.8199,0.8206,0.8205,0.8232,0.8235,0.8243,0.828,0.8281,0.8254,0.8255,0.8256,0.8257,0,0,0,0,0,0,0,0.8146,0.8151,0.8194,0.8183,0.8184,0.8184,0.8187,0.8211,0.822,0.82,0.82,0.8203,0.8232,0.8241,0.8244,0.8282,0.8254,0.8256,0.8257,0.8258,0.8345,0.8346,0,0,0,0,0,0,0.8143,0.8149,0.8193,0.8195,0.8163,0.8186,0.8189,0.82,0.822,0.8222,0.8204,0.8203,0.8237,0.8241,0.8245,0.8282,0.8256,0.8258,0.826,0.8344,0.8345,0.8346,0,0,0,0,0,0,0.8142,0.8147,0.8192,0.8172,0.8178,0.8188,0.82,0.8201,0.8209,0.8223,0.8225,0.8211,0.8237,0.8242,0.8269,0.8283,0.8259,0.8261,0.8343,0.8344,0.8346,0.8357,0,0,0,0,0,0,0.814,0.8147,0.8158,0.8172,0.8179,0.8215,0.82,0.8202,0.8213,0.8212,0.823,0.8232,0.8236,0.8266,0.8271,0.8286,0.8263,0.8342,0.8343,0.8345,0.8355,0.8358,0.8361,0,0,0,0,0,0.8138,0.8161,0.8158,0.8164,0.8193,0.8215,0.8219,0.8223,0.8214,0.8225,0.8234,0.8231,0.8281,0.8269,0.8275,0.829,0.8341,0.8343,0.8345,0.8354,0.8358,0.8361,0,0,0,0,0,0,0.815,0.8163,0.816,0.8188,0.82,0.8214,0.8229,0.8227,0.8243,0.8242,0.8247,0.8251,0.8278,0.8287,0.8274,0.8321,0.831,0.8313,0.8314,0.8318,0.8321,0.8318,0.8265,0,0,0,0,0,0.8155,0.8171,0.8183,0.8206,0.8212,0.822,0.823,0.8231,0.8245,0.825,0.8261,0.8276,0.8294,0.8307,0.8325,0.8356,0.836,0.837,0.8373,0.8375,0.8378,0.8395,0.8399,0.8353,0.8353,0.8353,0,0,0.8168,0.8177,0.8187,0.8209,0.8218,0.8236,0.8224,0.8244,0.8257,0.8254,0.828,0.8288,0.8305,0.8334,0.8348,0.8342,0.8392,0.8378,0.838,0.8381,0.8397,0.8402,0.8406,0.8354,0.8354,0.8354,0,0,0.8198,0.8207,0.8227,0.8236,0.825,0.8255,0.826,0.8274,0.8278,0.8304,0.8302,0.8319,0.8351,0.8363,0.8373,0.8407,0.8405,0.8413,0.8428,0.8445,0.8448,0.8451,0.8463,0.8467,0.8416,0.8416,0.8416,0,0.8212,0.8236,0.8238,0.8257,0.8266,0.8263,0.8284,0.8293,0.8314,0.8321,0.8314,0.8354,0.8365,0.8396,0.8405,0.8413,0.8419,0.8411,0.8447,0.8451,0.8454,0.8465,0.8469,0.8417,0.8417,0.8417,0.8417,0,0.8252,0.827,0.8285,0.8301,0.8313,0.8333,0.8338,0.835,0.835,0.8356,0.8382,0.8395,0.8415,0.8423,0.8425,0.8455,0.8451,0.8446,0.8434,0.8459,0.8469,0.8474,0.8418,0.8418,0.8417,0.8417,0,0,0.8292,0.8308,0.8313,0.8321,0.8336,0.835,0.837,0.8388,0.8397,0.8412,0.8429,0.8456,0.845,0.8462,0.8465,0.8479,0.8504,0.8472,0.8473,0.8477,0.8538,0.8541,0.8546,0.8503,0.8504,0.8505,0.8536,0,0.8323,0.8356,0.8358,0.8388,0.8404,0.8401,0.8418,0.843,0.8436,0.8451,0.8458,0.8477,0.8469,0.8476,0.849,0.8498,0.8517,0.8496,0.852,0.8521,0.8515,0.8552,0.8556,0.8585,0.8541,0.8541,0.8542,0,0.8364,0.8377,0.8409,0.842,0.8427,0.8443,0.8459,0.8473,0.8487,0.849,0.8502,0.8503,0.8524,0.8512,0.8541,0.8527,0.8537,0.8543,0.8544,0.8546,0.8532,0.8554,0.8594,0.8598,0.8549,0.8548,0.8547,0,0.8389,0.8415,0.8436,0.8443,0.8457,0.8468,0.8475,0.8487,0.8498,0.8512,0.8519,0.8537,0.8547,0.8561,0.8566,0.8557,0.8596,0.8584,0.86,0.8599,0.8608,0.8607,0.8649,0.8615,0.8615,0.8615,0.8615,0,0.8424,0.8443,0.8447,0.8461,0.8483,0.8485,0.8507,0.8513,0.8524,0.8539,0.8538,0.8553,0.856,0.8576,0.858,0.8604,0.8609,0.8613,0.8613,0.8612,0.8612,0.8619,0.8617,0.8616,0.8616,0.8615,0.8615,0,0.8454,0.8458,0.8482,0.8493,0.8496,0.8511,0.8522,0.8535,0.854,0.856,0.8565,0.8573,0.8592,0.8599,0.8622,0.8625,0.8653,0.8652,0.8648,0.8648,0.8662,0.8661,0.871,0.8716,0.8678,0.8679,0.8679,0,0.8476,0.8491,0.8503,0.8512,0.8518,0.8534,0.8544,0.8547,0.8557,0.8573,0.8585,0.8603,0.8618,0.8648,0.8657,0.8675,0.8675,0.8691,0.8678,0.8676,0.8675,0.8673,0.8675,0.8694,0.8694,0.8694,0.8695,0,0.8514,0.8515,0.8528,0.8542,0.8553,0.8565,0.8577,0.8585,0.8589,0.8602,0.862,0.8631,0.8654,0.8672,0.869,0.8699,0.8698,0.8699,0.8703,0.8702,0.8698,0.87,0.8654,0.8697,0.8697,0.8697,0.8697,0.8697,0.854,0.8553,0.8562,0.8578,0.8586,0.8596,0.8609,0.8615,0.863,0.8647,0.8649,0.8668,0.8681,0.8705,0.8714,0.873,0.8726,0.8733,0.8734,0.8736,0.8736,0.8695,0.8734,0.8734,0.8734,0.8734,0.8734,0,0.8578,0.8583,0.8597,0.8612,0.8624,0.862,0.8632,0.8643,0.8659,0.8671,0.8684,0.8705,0.8723,0.8733,0.8751,0.8762,0.8761,0.8766,0.8765,0.8767,0.8739,0.8733,0.8766,0.8766,0.8766,0.8766,0.8766,0.8766,0.8598,0.8618,0.862,0.8645,0.8651,0.8669,0.8676,0.8686,0.8695,0.8717,0.8731,0.8737,0.8748,0.8766,0.8782,0.8785,0.8791,0.8796,0.8799,0.8772,0.8769,0.8766,0.876,0.8798,0.8798,0.8825,0.8825,0.8825]},{"header":{"parameterUnit":"m.s-1","parameterCategory":1,"la1":30.2991,"la2":30.254,"lo1":-89.0895,"lo2":-89.0444,"dx":0.0017,"dy":0.0017,"nx":28,"ny":28,"refTime":"2022-12-09T15:00:00:Z","depth":0,"parameterNumber":3,"parameterNumberName":"V-component_of_WINDS"},"data":[0,0,0,0,0,0,0,0,0,0,0,0,0,0,0,0,0,0,0,0,0,0,0,0,0,0,0,0,0,0,0,0,0,0,0,0,0,0,0,0,0,0,0,0,0,0,0,0,0,0,0,0,0,0,0,0,0,0,2.1682,2.1682,0,2.1646,2.1646,2.1646,2.1618,2.1618,2.1618,2.1618,2.1578,2.1578,2.1577,0,0,0,0,0,0,0,0,0,0,0,0,0,2.1724,2.1724,2.1682,2.1682,2.1681,2.1646,2.1646,2.1645,2.1618,2.1618,2.1618,2.1618,2.1579,2.1578,2.1577,0,0,0,0,0,0,0,0,0,0,0,0,0,2.1699,2.1723,2.1682,2.1664,2.1662,2.1647,2.1646,2.1645,2.1619,2.1618,2.1618,2.1618,2.1579,2.1578,2.1576,2.1576,0,0,2.1573,2.1572,0,0,0,0,0,0,0,0,2.17,2.1697,2.1667,2.1665,2.1663,2.1637,2.1646,2.1622,2.1619,2.1635,2.1618,2.1617,2.1598,2.1595,2.1589,2.1574,2.1572,2.1573,2.1572,2.1571,2.1571,0,0,0,0,0,0,0,2.1702,2.1699,2.1668,2.1666,2.1664,2.1656,2.1652,2.1641,2.1619,2.1633,2.1631,2.1628,2.1597,2.159,2.1588,2.1572,2.1573,2.1572,2.1571,2.157,2.1553,2.1553,0,0,0,0,0,0,2.1707,2.17,2.1669,2.1667,2.1681,2.1656,2.1651,2.1645,2.1619,2.1614,2.1628,2.1627,2.1593,2.1589,2.1586,2.1583,2.1571,2.157,2.1569,2.1553,2.1553,2.1553,0,0,0,0,0,0,2.1708,2.1705,2.1671,2.1683,2.1678,2.1655,2.1649,2.1645,2.1638,2.1615,2.161,2.1626,2.1592,2.1588,2.1579,2.1581,2.157,2.1568,2.1552,2.1553,2.1553,2.1577,0,0,0,0,0,0,2.171,2.1705,2.1706,2.1683,2.1678,2.1664,2.1649,2.1644,2.1637,2.1634,2.1612,2.1607,2.1592,2.1581,2.1577,2.1579,2.1567,2.1552,2.1552,2.1553,2.1575,2.1578,2.158,0,0,0,0,0,2.1711,2.1713,2.1706,2.1702,2.1678,2.1665,2.1661,2.1644,2.1637,2.1637,2.1621,2.1608,2.1582,2.158,2.1576,2.1577,2.1552,2.1552,2.1553,2.1575,2.1577,2.158,0,0,0,0,0,0,2.1736,2.171,2.1701,2.1697,2.1683,2.166,2.1659,2.1648,2.1635,2.1633,2.1611,2.1606,2.1599,2.1587,2.1586,2.1575,2.1565,2.1565,2.1583,2.1585,2.1587,2.159,2.1566,0,0,0,0,0,2.1741,2.1734,2.1711,2.1709,2.1703,2.1682,2.1676,2.1664,2.1648,2.1642,2.1626,2.1611,2.1599,2.1591,2.1579,2.1574,2.1567,2.1573,2.1575,2.1577,2.1577,2.1571,2.1573,2.1555,2.1555,2.1555,0,0,2.1751,2.1736,2.1733,2.1714,2.1702,2.1693,2.1678,2.167,2.1663,2.1641,2.1631,2.1618,2.1599,2.1592,2.1587,2.1582,2.158,2.1578,2.1579,2.1578,2.1572,2.1574,2.1575,2.1556,2.1556,2.1556,0,0,2.1765,2.1754,2.175,2.1738,2.1721,2.1707,2.1706,2.1685,2.1676,2.1666,2.1648,2.1639,2.162,2.1607,2.1597,2.1606,2.1592,2.1602,2.1613,2.1608,2.1609,2.1611,2.1612,2.1613,2.1602,2.1602,2.1602,0,2.178,2.1767,2.175,2.1742,2.1734,2.1714,2.171,2.1699,2.1678,2.1672,2.1666,2.164,2.1626,2.1614,2.1616,2.161,2.1607,2.1604,2.1611,2.1612,2.1613,2.1614,2.1615,2.1603,2.1603,2.1603,2.1603,0,2.1785,2.1777,2.1776,2.1757,2.1748,2.1743,2.1723,2.1716,2.1704,2.1691,2.1679,2.1662,2.1645,2.1642,2.163,2.1628,2.1625,2.1615,2.1605,2.1616,2.1616,2.1617,2.1605,2.1605,2.1604,2.1604,0,0,2.1814,2.1785,2.1785,2.1775,2.1754,2.1746,2.1739,2.1723,2.1717,2.1703,2.1696,2.1679,2.167,2.1659,2.1646,2.1642,2.1647,2.1632,2.1631,2.1635,2.1642,2.1649,2.165,2.1639,2.1639,2.1639,2.1643,0,2.1823,2.1811,2.1794,2.1786,2.1777,2.1758,2.1751,2.1737,2.1724,2.1713,2.1698,2.1687,2.1676,2.1669,2.1664,2.1648,2.1648,2.1647,2.163,2.163,2.1635,2.1651,2.1658,2.1663,2.1644,2.1644,2.1644,0,2.1833,2.1821,2.1812,2.1791,2.1786,2.1781,2.1765,2.1756,2.1738,2.1729,2.1717,2.1702,2.1692,2.1683,2.1668,2.1667,2.1659,2.165,2.1649,2.1646,2.1637,2.1647,2.1664,2.1665,2.1644,2.1644,2.1644,0,2.1853,2.1834,2.1827,2.1819,2.1794,2.1791,2.178,2.1762,2.1754,2.1739,2.1733,2.1717,2.1708,2.1695,2.1676,2.1672,2.1662,2.1652,2.1653,2.1653,2.1651,2.1652,2.1667,2.1647,2.1647,2.1647,2.1647,0,2.1866,2.1861,2.1835,2.183,2.1824,2.1804,2.1798,2.1785,2.177,2.1761,2.1743,2.1735,2.1711,2.1699,2.1684,2.1672,2.1669,2.166,2.1655,2.1661,2.1662,2.1655,2.1654,2.1648,2.1648,2.1648,2.1648,0,2.1887,2.187,2.186,2.1837,2.1831,2.1828,2.1807,2.1801,2.1787,2.1776,2.1772,2.1749,2.1735,2.1715,2.1693,2.1683,2.1673,2.1667,2.168,2.1677,2.1679,2.1678,2.1689,2.1689,2.1671,2.1671,2.1671,0,2.1895,2.1891,2.1868,2.1862,2.1852,2.1842,2.1833,2.1813,2.1804,2.1784,2.1779,2.1764,2.175,2.1727,2.1708,2.1691,2.1684,2.1689,2.1681,2.1686,2.1683,2.1683,2.1682,2.169,2.1691,2.1691,2.1691,0,2.1912,2.1903,2.1892,2.1878,2.1868,2.1855,2.1842,2.1837,2.1814,2.1805,2.179,2.178,2.1758,2.1742,2.1723,2.171,2.1696,2.1694,2.1693,2.1698,2.1705,2.17,2.1684,2.1693,2.1693,2.1693,2.1693,2.1693,2.1926,2.1921,2.1904,2.1892,2.188,2.1868,2.186,2.1846,2.1834,2.1815,2.1804,2.179,2.1771,2.1743,2.1731,2.1718,2.1713,2.1712,2.1711,2.1711,2.1713,2.1707,2.1715,2.1715,2.1715,2.1714,2.1714,0,2.1941,2.1929,2.1918,2.19,2.189,2.1879,2.1863,2.1855,2.1843,2.1827,2.1815,2.1797,2.1781,2.176,2.1743,2.1736,2.1729,2.1732,2.1732,2.1729,2.1719,2.1721,2.1738,2.1738,2.1738,2.1738,2.1738,2.1738,2.1947,2.1938,2.1928,2.1912,2.19,2.1887,2.1878,2.1866,2.1854,2.1835,2.1822,2.181,2.1791,2.1772,2.1756,2.175,2.1744,2.1749,2.1741,2.1732,2.173,2.1728,2.173,2.1748,2.1748,2.1751,2.1751,2.1751]}]]